Location: Bretagne
(43.8474°N, 0.4650°W)
Time: 06:53:56
(UTC+00:00)

Cosmos 968 Rocket - Pass Details

Date: 15 January 2026
Orbit: 737 x 765 km, 74.0° (Epoch: 10 February)

Event Time Altitude Azimuth Distance (km) Brightness Sun altitude
Rises 18:17:47 0° 335° (NNW) 3,206 6.9 -15.5°
Reaches altitude 10° 18:20:12 10° 332° (NNW) 2,273 6.1 -15.9°
Maximum altitude 18:25:14 59° 254° (WSW) 857 4.1 -16.8°
Drops below altitude 10° 18:30:13 10° 176° (S) 2,241 6.0 -17.7°
Sets 18:32:34 0° 172° (S) 3,157 6.7 -18.1°
